| time (UTC) | temp F | wind direction | speed MPH | gust MPH | rain 1hr in | rain 24hr in | rain mn in | humidity % | barometer mb |
| 20260506140105 | 78 | 210 | 14.0 | 53.0 | 0.00 | 0.00 | 0.00 | 41 | 1002.6 |
| 20260506134552 | 78 | 246 | 18.0 | 42.0 | 0.00 | 0.00 | 0.00 | 41 | 1002.9 |
| 20260506133114 | 77 | 213 | 19.0 | 52.0 | 0.00 | 0.00 | 0.00 | 41 | 1002.9 |
| 20260506131546 | 77 | 205 | 22.0 | 42.0 | 0.00 | 0.00 | 0.00 | 43 | 1003.2 |
| 20260506130057 | 76 | 203 | 17.0 | 40.0 | 0.00 | 0.00 | 0.00 | 42 | 1003.4 |
| 20260506124543 | 76 | 235 | 20.0 | 38.0 | 0.00 | 0.00 | 0.00 | 42 | 1003.5 |
| 20260506123042 | 76 | 208 | 13.0 | 42.0 | 0.00 | 0.00 | 0.00 | 41 | 1003.7 |
| 20260506121542 | 76 | 225 | 17.0 | 48.0 | 0.00 | 0.00 | 0.00 | 40 | 1003.9 |
| 20260506120043 | 76 | 235 | 10.0 | 32.0 | 0.00 | 0.00 | 0.00 | 40 | 1004.0 |
| 20260506114542 | 75 | 184 | 14.0 | 37.0 | 0.00 | 0.00 | 0.00 | 43 | 1004.1 |
| 20260506113035 | 75 | 176 | 22.0 | 34.0 | 0.00 | 0.00 | 0.00 | 45 | 1004.4 |
| 20260506111537 | 75 | 212 | 23.0 | 41.0 | 0.00 | 0.00 | 0.00 | 46 | 1004.7 |
| 20260506110036 | 74 | 188 | 15.0 | 38.0 | 0.00 | 0.00 | 0.00 | 48 | 1004.9 |
| 20260506104529 | 74 | 158 | 13.0 | 39.0 | 0.00 | 0.00 | 0.00 | 49 | 1005.1 |
| 20260506103028 | 73 | 190 | 17.0 | 40.0 | 0.00 | 0.00 | 0.00 | 48 | 1005.6 |
| 20260506101544 | 73 | 179 | 18.0 | 36.0 | 0.00 | 0.00 | 0.00 | 50 | 1005.6 |
| 20260506100025 | 73 | 179 | 10.0 | 31.0 | 0.00 | 0.00 | 0.00 | 49 | 1005.9 |
| 20260506094523 | 73 | 204 | 17.0 | 34.0 | 0.00 | 0.00 | 0.00 | 50 | 1006.1 |
| 20260506093021 | 73 | 202 | 8.0 | 25.0 | 0.00 | 0.00 | 0.00 | 53 | 1006.1 |
| 20260506091522 | 74 | 184 | 10.0 | 24.0 | 0.00 | 0.00 | 0.00 | 47 | 1006.2 |
| 20260506090015 | 73 | 157 | 2.0 | 17.0 | 0.00 | 0.00 | 0.00 | 50 | 1006.3 |
| 20260506084518 | 72 | 142 | 5.0 | 16.0 | 0.00 | 0.00 | 0.00 | 51 | 1006.3 |
| 20260506083008 | 72 | 211 | 2.0 | 16.0 | 0.00 | 0.00 | 0.00 | 53 | 1006.3 |
| 20260506081507 | 71 | 142 | 2.0 | 13.0 | 0.00 | 0.00 | 0.00 | 54 | 1006.3 |
| 20260506073104 | 70 | 187 | 0.0 | 7.0 | 0.00 | 0.00 | 0.00 | 56 | 1006.6 |
| 20260506071607 | 70 | 186 | 0.0 | 7.0 | 0.00 | 0.00 | 0.00 | 58 | 1006.7 |
| 20260506061539 | 65 | 186 | 0.0 | 0.0 | 0.00 | 0.00 | 0.00 | 64 | 1007.0 |
| 20260506044529 | 61 | 323 | 0.0 | 0.0 | 0.00 | 0.00 | 0.00 | 73 | 1006.7 |
| 20260506043028 | 60 | 336 | 0.0 | 0.0 | 0.00 | 0.00 | 0.00 | 74 | 1006.7 |
| 20260506041531 | 60 | 336 | 0.0 | 8.0 | 0.00 | 0.00 | 0.00 | 74 | 1006.5 |
| 20260506040025 | 61 | 338 | 2.0 | 13.0 | 0.00 | 0.00 | 0.00 | 74 | 1006.4 |
| 20260506034519 | 61 | 339 | 0.0 | 0.0 | 0.00 | 0.00 | 0.00 | 73 | 1006.4 |
| 20260506033016 | 62 | 340 | 0.0 | 13.0 | 0.00 | 0.00 | 0.00 | 72 | 1006.3 |
| 20260506031522 | 62 | 340 | 0.0 | 15.0 | 0.00 | 0.00 | 0.00 | 71 | 1006.3 |
| 20260506030020 | 62 | 338 | 4.0 | 23.0 | 0.00 | 0.00 | 0.00 | 71 | 1006.3 |
| 20260506024513 | 63 | 337 | 2.0 | 16.0 | 0.00 | 0.00 | 0.00 | 70 | 1006.2 |
| 20260506023012 | 63 | 333 | 0.0 | 11.0 | 0.00 | 0.00 | 0.00 | 70 | 1006.2 |
| 20260506021511 | 63 | 334 | 5.0 | 25.0 | 0.00 | 0.00 | 0.00 | 69 | 1006.1 |
| 20260506020013 | 64 | 346 | 8.0 | 23.0 | 0.00 | 0.00 | 0.00 | 68 | 1005.9 |
| 20260506014513 | 64 | 330 | 10.0 | 24.0 | 0.00 | 0.00 | 0.00 | 67 | 1005.8 |
| 20260506013021 | 64 | 350 | 4.0 | 19.0 | 0.00 | 0.00 | 0.00 | 66 | 1005.8 |
| 20260506011506 | 64 | 345 | 10.0 | 33.0 | 0.00 | 0.00 | 0.00 | 67 | 1005.8 |
| 20260506010003 | 62 | 334 | 18.0 | 30.0 | 0.00 | 0.00 | 0.00 | 70 | 1005.6 |
| 20260506004600 | 60 | 230 | 0.0 | 0.0 | 0.00 | 0.00 | 0.00 | 68 | 1005.5 |
| 20260506003057 | 60 | 230 | 0.0 | 0.0 | 0.00 | 0.00 | 0.00 | 67 | 1005.2 |
| 20260506001614 | 60 | 230 | 0.0 | 0.0 | 0.00 | 0.00 | 0.00 | 67 | 1005.0 |
| 20260506000053 | 60 | 230 | 0.0 | 13.0 | 0.00 | 0.00 | 0.00 | 66 | 1005.0 |
| 20260505234553 | 60 | 225 | 0.0 | 0.0 | 0.00 | 0.00 | 0.00 | 67 | 1004.8 |
| 20260505233055 | 60 | 225 | 0.0 | 10.0 | 0.00 | 0.00 | 0.00 | 66 | 1004.6 |
| 20260505231553 | 60 | 225 | 0.0 | 7.0 | 0.00 | 0.00 | 0.00 | 66 | 1004.6 |
| 20260505230047 | 60 | 225 | 0.0 | 8.0 | 0.00 | 0.00 | 0.00 | 65 | 1004.4 |
| 20260505224547 | 60 | 225 | 0.0 | 0.0 | 0.00 | 0.00 | 0.00 | 65 | 1004.2 |
| 20260505223048 | 61 | 225 | 0.0 | 14.0 | 0.00 | 0.00 | 0.00 | 64 | 1004.0 |
| 20260505221544 | 61 | 225 | 0.0 | 0.0 | 0.00 | 0.00 | 0.00 | 63 | 1003.9 |
| 20260505220041 | 62 | 224 | 0.0 | 6.0 | 0.00 | 0.00 | 0.00 | 61 | 1003.8 |
| 20260505214554 | 63 | 225 | 3.0 | 16.0 | 0.00 | 0.00 | 0.00 | 60 | 1003.6 |
| 20260505213050 | 63 | 224 | 3.0 | 18.0 | 0.00 | 0.00 | 0.00 | 60 | 1003.6 |
| 20260505211534 | 62 | 213 | 5.0 | 11.0 | 0.00 | 0.00 | 0.00 | 61 | 1003.5 |
| 20260505210034 | 63 | 212 | 0.0 | 8.0 | 0.00 | 0.00 | 0.00 | 60 | 1003.4 |
| 20260505204536 | 64 | 211 | 2.0 | 16.0 | 0.00 | 0.00 | 0.00 | 59 | 1003.0 |
| 20260505203039 | 64 | 224 | 6.0 | 23.0 | 0.00 | 0.00 | 0.00 | 57 | 1002.8 |
| 20260505201545 | 65 | 235 | 7.0 | 20.0 | 0.00 | 0.00 | 0.00 | 57 | 1002.7 |
| 20260505200032 | 65 | 240 | 9.0 | 28.0 | 0.00 | 0.00 | 0.00 | 56 | 1002.7 |
| 20260505194531 | 66 | 224 | 11.0 | 23.0 | 0.00 | 0.00 | 0.00 | 55 | 1002.7 |
| 20260505193042 | 66 | 230 | 7.0 | 27.0 | 0.00 | 0.00 | 0.00 | 54 | 1002.6 |
| 20260505191530 | 66 | 230 | 10.0 | 26.0 | 0.00 | 0.00 | 0.00 | 54 | 1002.7 |
| 20260505190036 | 66 | 225 | 6.0 | 34.0 | 0.00 | 0.00 | 0.00 | 53 | 1002.6 |
| 20260505184529 | 67 | 219 | 8.0 | 26.0 | 0.00 | 0.00 | 0.00 | 53 | 1002.7 |
| 20260505183044 | 67 | 208 | 11.0 | 33.0 | 0.00 | 0.00 | 0.00 | 52 | 1002.6 |
| 20260505181530 | 68 | 222 | 12.0 | 38.0 | 0.00 | 0.00 | 0.00 | 50 | 1002.4 |
| 20260505180036 | 69 | 247 | 16.0 | 40.0 | 0.00 | 0.00 | 0.00 | 49 | 1002.5 |
| 20260505174536 | 70 | 217 | 15.0 | 47.0 | 0.00 | 0.00 | 0.00 | 48 | 1002.5 |
| 20260505173035 | 71 | 230 | 13.0 | 48.0 | 0.00 | 0.00 | 0.00 | 46 | 1002.6 |
| 20260505171530 | 72 | 230 | 23.0 | 49.0 | 0.00 | 0.00 | 0.00 | 45 | 1002.5 |
| 20260505170027 | 73 | 215 | 24.0 | 48.0 | 0.00 | 0.00 | 0.00 | 44 | 1002.6 |
| 20260505164533 | 73 | 213 | 12.0 | 53.0 | 0.00 | 0.00 | 0.00 | 44 | 1002.6 |
| 20260505163024 | 73 | 230 | 20.0 | 56.0 | 0.00 | 0.00 | 0.00 | 45 | 1002.7 |
| 20260505161522 | 74 | 253 | 20.0 | 47.0 | 0.00 | 0.00 | 0.00 | 44 | 1002.9 |
| 20260505153027 | 75 | 250 | 14.0 | 52.0 | 0.00 | 0.00 | 0.00 | 42 | 1002.9 |
| 20260505151519 | 76 | 263 | 25.0 | 54.0 | 0.00 | 0.00 | 0.00 | 41 | 1003.0 |